Location: Holkham
(52.9500°N, 0.8167°E)
Time: 04:53:16
(UTC+00:00)

CENTAUR R/B - Visible Passes

Search period start: 06 June 2026 00:00
Search period end: 16 June 2026 00:00
Orbit: 622 x 1558 km, 63.4° (Epoch: 5 June)

Date Brightness Start Highest point End Pass type
(mag) Time Alt. Az. Time Alt. Az. Time Alt. Az.
6 Jun 4.4 00:31:28 10° WNW 00:37:37 39° N 00:45:13 10° ENE visible
6 Jun 4.4 02:23:01 10° NW 02:30:01 44° NNE 02:38:26 10° E visible
6 Jun 2.6 21:50:22 10° SW 21:56:06 90° WNW 22:03:32 10° NE visible
6 Jun 4.1 23:41:31 10° W 23:47:34 43° NNW 23:55:06 10° NE visible
7 Jun 4.5 01:33:17 10° WNW 01:39:56 40° N 01:47:59 10° ENE visible
7 Jun 2.5 21:01:10 10° SSW 21:06:42 63° SE 21:13:47 10° NE visible
7 Jun 3.7 22:51:38 10° W 22:57:36 50° NNW 23:05:09 10° NE visible
8 Jun 4.5 00:43:27 10° WNW 00:49:49 38° N 00:57:35 10° ENE visible
8 Jun 4.2 02:34:40 10° NW 02:42:04 53° NNE 02:50:55 10° ESE visible
8 Jun 3.2 22:01:53 10° WSW 22:07:46 64° NNW 22:15:19 10° NE visible
8 Jun 4.4 23:53:31 10° WNW 23:59:42 39° N 00:07:18 10° ENE visible
9 Jun 4.4 01:45:02 10° NW 01:52:04 45° NNE 02:00:33 10° E visible
9 Jun 2.7 21:12:21 10° SW 21:18:07 86° NW 21:25:33 10° NE visible
9 Jun 4.2 23:03:34 10° W 23:09:38 42° NNW 23:17:11 10° NE visible
10 Jun 4.5 00:55:19 10° WNW 01:02:00 40° NNE 01:10:06 10° E visible
10 Jun 3.8 22:13:40 10° W 22:19:38 49° NNW 22:27:12 10° NE visible
11 Jun 4.5 00:05:29 10° WNW 00:11:53 38° N 00:19:41 10° ENE visible
11 Jun 4.1 01:56:41 10° NW 02:04:07 54° NNE 02:13:01 10° ESE visible
11 Jun 3.3 21:23:54 10° WSW 21:29:48 62° NNW 21:37:21 10° NE visible
11 Jun 4.5 23:15:34 10° WNW 23:21:46 38° N 23:29:23 10° ENE visible
12 Jun 4.3 01:07:04 10° NW 01:14:08 46° NNE 01:22:40 10° E visible
12 Jun 4.2 22:25:37 10° W 22:31:41 41° NNW 22:39:14 10° NE visible
13 Jun 4.5 00:17:21 10° WNW 00:24:04 41° NNE 00:32:13 10° E visible
13 Jun 3.7 02:08:14 10° NW 02:16:01 69° NE 02:25:16 10° ESE visible
13 Jun 3.9 21:35:43 10° W 21:41:41 48° NNW 21:49:14 10° NE visible
13 Jun 4.5 23:27:31 10° WNW 23:33:58 38° N 23:41:48 10° ENE visible
14 Jun 4.0 01:18:41 10° NW 01:26:10 56° NNE 01:35:06 10° ESE visible
14 Jun 4.5 22:37:37 10° WNW 22:43:50 38° N 22:51:28 10° ENE visible
15 Jun 4.3 00:29:04 10° NW 00:36:11 47° NNE 00:44:45 10° E visible
15 Jun 3.4 02:19:45 10° NW 02:27:46 90° NE 02:37:11 10° SE visible
15 Jun 4.3 21:47:40 10° W 21:53:45 41° NNW 22:01:18 10° NE visible
15 Jun 4.4 23:39:21 10° NW 23:46:08 41° NNE 23:54:20 10° E visible
